📊 Raw Sensor Data
Showing records 51476 to 51500 of 85,149 total
| ID | Distance (ft) | Battery V | Battery A | Int Temp (°F) | Int Humid (%) | Ext Temp (°F) | Solar V | RSSI | SNR | Time Stamp |
|---|---|---|---|---|---|---|---|---|---|---|
| 33686 | 15.1 | 3.97 | 0 | 90 | 35 | 74 | 5.10 | -74 | 7 | 02/28/2025 02:45 PM |
| 33685 | 15.1 | 3.97 | 7 | 90 | 35 | 76 | 5.10 | -72 | 8 | 02/28/2025 02:30 PM |
| 33684 | 15.1 | 4.02 | 7 | 90 | 35 | 73 | 5.10 | -74 | 8 | 02/28/2025 02:15 PM |
| 33683 | 15.1 | 3.97 | 0 | 88 | 35 | 74 | 5.10 | -74 | 7 | 02/28/2025 02:00 PM |
| 33682 | 15.1 | 3.97 | 0 | 87 | 35 | 74 | 5.10 | -74 | 8 | 02/28/2025 01:45 PM |
| 33681 | 15.1 | 4.11 | 7 | 86 | 34 | 76 | 5.10 | -74 | 8 | 02/28/2025 01:30 PM |
| 33680 | 15.1 | 3.97 | 7 | 84 | 35 | 72 | 5.10 | -75 | 8 | 02/28/2025 01:15 PM |
| 33679 | 15.1 | 3.97 | 0 | 83 | 35 | 71 | 5.10 | -74 | 7 | 02/28/2025 01:00 PM |
| 33678 | 15.1 | 3.97 | 5 | 82 | 35 | 72 | 5.10 | -75 | 8 | 02/28/2025 12:45 PM |
| 33677 | 15.1 | 3.97 | 7 | 81 | 35 | 73 | 5.10 | -74 | 8 | 02/28/2025 12:30 PM |
| 33676 | 15.0 | 3.97 | 5 | 79 | 35 | 72 | 5.10 | -73 | 8 | 02/28/2025 12:15 PM |
| 33675 | 15.0 | 3.97 | 7 | 77 | 35 | 72 | 5.10 | -74 | 6 | 02/28/2025 12:00 PM |
| 33674 | 15.0 | 3.97 | 7 | 77 | 35 | 72 | 5.10 | -74 | 6 | 02/28/2025 12:00 PM |
| 33673 | 15.0 | 3.97 | 0 | 76 | 35 | 71 | 5.10 | -72 | 8 | 02/28/2025 11:45 AM |
| 33672 | 15.0 | 3.98 | 7 | 73 | 36 | 70 | 5.10 | -72 | 8 | 02/28/2025 11:30 AM |
| 33671 | 15.0 | 3.97 | 7 | 72 | 35 | 69 | 5.10 | -71 | 8 | 02/28/2025 11:15 AM |
| 33670 | 15.0 | 3.97 | 0 | 71 | 35 | 69 | 5.10 | -72 | 8 | 02/28/2025 11:00 AM |
| 33669 | 15.1 | 3.97 | 7 | 70 | 34 | 69 | 5.10 | -71 | 8 | 02/28/2025 10:45 AM |
| 33668 | 15.0 | 4.13 | 7 | 68 | 34 | 69 | 5.10 | -74 | 7 | 02/28/2025 10:30 AM |
| 33667 | 15.1 | 3.97 | 0 | 66 | 34 | 69 | 5.10 | -73 | 7 | 02/28/2025 10:15 AM |
| 33666 | 15.1 | 4.08 | 7 | 63 | 34 | 66 | 5.10 | -74 | 7 | 02/28/2025 10:00 AM |
| 33665 | 15.0 | 3.96 | 7 | 61 | 34 | 65 | 5.10 | -74 | 8 | 02/28/2025 09:45 AM |
| 33664 | 14.9 | 3.96 | 7 | 58 | 35 | 62 | 5.10 | -75 | 8 | 02/28/2025 09:30 AM |
| 33663 | 15.0 | 3.96 | 7 | 57 | 35 | 60 | 5.10 | -75 | 8 | 02/28/2025 09:15 AM |
| 33662 | 15.0 | 3.96 | 7 | 55 | 35 | 59 | 5.10 | -75 | 8 | 02/28/2025 09:00 AM |